Weather History for KEVW - January, 2012

Change the Weather History Date:

Tuesday, January 24, 2012

  Actual Average Record
Temperature  
Mean Temperature 20 °F 22 °F  
Max Temperature 26 °F 29 °F 40 °F (2009)
Min Temperature 14 °F 14 °F -4 °F (2008)
Degree Days  
Heating Degree Days 45 43  
Month to date heating degree days 925 1042  
Since 1 July heating degree days 4193 4521  
Cooling Degree Days 0 0  
Month to date cooling degree days 0 0  
Year to date cooling degree days 0 0  
Moisture  
Dew Point 17 °F    
Average Humidity 73    
Maximum Humidity 96    
Minimum Humidity 50    
Precipitation  
Precipitation T in 0.01 in 0.06 in (2009)
Month to date precipitation 0.09 0.43  
Year to date precipitation 0.09 0.43  
Sea Level Pressure  
Sea Level Pressure 30.16 in    
Wind  
Wind Speed 6 mph (WNW)    
Max Wind Speed 14 mph    
Max Gust Speed 16 mph    
Visibility 8 miles    
Events Snow    
T = Trace of Precipitation, MM = Missing Value Source: NWS Daily Summary

Daily Weather History Graph

Daily Weather History Graph

Search for Another Location

Airport or City:

Trip Planner

Search our weather history database for the weather conditions in past years. The results will help you decide how hot, cold, wet, or windy it might be!

Date:

Astronomy

Jan. 24, 2012 Rise Set
Actual Time 7:42 AM MST 5:30 PM MST
Civil Twilight 7:12 AM MST 5:59 PM MST
Nautical Twilight 6:39 AM MST 6:33 PM MST
Astronomical Twilight 6:06 AM MST 7:06 PM MST
Moon 8:12 AM MST (1/24) 7:27 PM MST (1/24)
Length of Visible Light 10h 47m
Length of Day
9h 47m
Waxing Crescent, 3% of the Moon is Illuminated
Jan 24
Waxing Crescent
Jan 30
First Quarter
Feb 7
Full
Feb 14
Last Quarter
Feb 21
New

Hourly Weather History & Observations

Time (MST) Temp. Windchill Dew Point Humidity Pressure Visibility Wind Dir Wind Speed Gust Speed Precip Events Conditions
12:53 AM 23.0 °F 14.7 °F 21.0 °F 92% 29.93 in 10.0 mi WSW 6.9 mph - 0.00 in   Overcast
1:48 AM 24.8 °F 16.1 °F 19.4 °F 80% 29.93 in 10.0 mi West 8.1 mph - N/A   Overcast
1:53 AM 24.1 °F 14.4 °F 19.9 °F 84% 29.98 in 9.0 mi West 9.2 mph - 0.00 in Snow Light Snow
2:15 AM 23.0 °F 13.9 °F 19.4 °F 86% 29.95 in 4.0 mi West 8.1 mph - 0.00 in Snow Light Snow
2:53 AM 24.1 °F 16.0 °F 19.9 °F 84% 30.03 in 4.0 mi West 6.9 mph - 0.00 in Snow Light Snow
3:42 AM 21.2 °F 16.4 °F 17.6 °F 86% 29.99 in 9.0 mi WSW 3.5 mph - 0.00 in   Overcast
4:38 AM 23.0 °F 14.7 °F 19.4 °F 86% 30.02 in 2.5 mi West 6.9 mph - 0.00 in Snow Light Snow
4:42 AM 23.0 °F 17.0 °F 19.4 °F 86% 30.02 in 1.5 mi NW 4.6 mph - 0.00 in Snow Light Snow
4:56 AM 21.2 °F 14.9 °F 19.4 °F 93% 30.03 in 1.5 mi North 4.6 mph - 0.00 in Snow Light Snow
5:09 AM 21.2 °F 13.6 °F 21.2 °F 100% 30.03 in 1.5 mi NNW 5.8 mph - 0.00 in Snow Light Snow
5:11 AM 21.2 °F 12.6 °F 19.4 °F 93% 30.03 in 2.0 mi NNW 6.9 mph - 0.00 in Snow Light Snow
5:14 AM 21.2 °F 12.6 °F 19.4 °F 93% 30.03 in 4.0 mi NNW 6.9 mph - 0.00 in Snow Light Snow
5:31 AM 19.4 °F 14.3 °F 19.4 °F 100% 30.04 in 10.0 mi North 3.5 mph - 0.00 in   Mostly Cloudy
5:42 AM 19.4 °F 12.8 °F 17.6 °F 93% 30.04 in 10.0 mi North 4.6 mph - 0.00 in   Scattered Clouds
5:53 AM 19.9 °F - 17.1 °F 89% 30.15 in 10.0 mi Calm Calm - 0.00 in   Partly Cloudy
7:53 AM 18.0 °F 8.7 °F 15.1 °F 88% 30.22 in 10.0 mi NNW 6.9 mph - N/A   Clear
8:53 AM 17.1 °F 7.6 °F 15.1 °F 92% 30.25 in 10.0 mi NNW 6.9 mph - N/A   Clear
9:45 AM 19.4 °F 11.5 °F 17.6 °F 93% 30.16 in 10.0 mi NW 5.8 mph - N/A   Partly Cloudy
9:53 AM 19.0 °F 12.3 °F 17.1 °F 92% 30.27 in 10.0 mi NW 4.6 mph - N/A   Partly Cloudy
10:12 AM 19.4 °F 11.5 °F 15.8 °F 86% 30.19 in 10.0 mi NNW 5.8 mph - N/A   Mostly Cloudy
10:33 AM 19.4 °F 12.8 °F 15.8 °F 86% 30.20 in 10.0 mi NNW 4.6 mph - N/A   Scattered Clouds
10:53 AM 19.9 °F 12.1 °F 17.1 °F 89% 30.31 in 10.0 mi WNW 5.8 mph - N/A   Clear
11:02 AM 19.4 °F 14.3 °F 15.8 °F 86% 30.20 in 10.0 mi NW 3.5 mph - N/A   Partly Cloudy
11:53 AM 21.9 °F - 16.0 °F 78% 30.29 in 10.0 mi Calm Calm - N/A   Clear
12:53 PM 21.9 °F 14.5 °F 15.1 °F 75% 30.30 in 10.0 mi West 5.8 mph - N/A   Clear
2:53 PM 25.0 °F 18.1 °F 9.0 °F 51% 30.27 in 10.0 mi SW 5.8 mph - N/A   Clear
4:53 PM 21.9 °F 13.4 °F 15.1 °F 75% 30.31 in 10.0 mi WSW 6.9 mph - N/A   Clear
5:53 PM 18.0 °F 8.7 °F 12.9 °F 81% 30.37 in 10.0 mi WSW 6.9 mph - N/A   Clear
6:53 PM 17.1 °F 8.7 °F 10.9 °F 77% 30.40 in 10.0 mi WSW 5.8 mph - N/A   Clear
7:53 PM 18.0 °F 9.8 °F 12.9 °F 81% 30.44 in 10.0 mi SW 5.8 mph - N/A   Clear
9:53 PM 16.0 °F 5.3 °F 12.0 °F 84% 30.43 in 10.0 mi SSW 8.1 mph - N/A   Clear
11:53 PM 19.0 °F 6.8 °F 15.1 °F 85% 30.43 in 10.0 mi WSW 11.5 mph - N/A   Overcast